RYR6RM EGSS-LEAM

Flight info

Callsign RYR6RM
Flight time 2h 38m
Altitude 38000
Route NUGBO M183 SILVA Q41 SAM N63 LELNA/N0444F370 DCT NOVAN DCT NENEM P152 PPN N10 CJN L27 BLN N865 ESILA
Aircraft B38M/M-SADE3FGILRWY/SB1

Departure

Time 2026-04-22 10:34
Airport London Stansted Airport (EGSS)

Arrival

Time 2026-04-22 13:12
Airport Almería Airport (LEAM)
Time Latitude Longitude Altitude Speed Heading
2026-04-22 10:02 51.89165 0.25741 355 ft 0 kts 222°
2026-04-22 10:23 51.89170 0.25750 362 ft 4 kts 222°
2026-04-22 10:23 51.89190 0.25780 360 ft 4 kts 223°
2026-04-22 10:23 51.89206 0.25804 361 ft 4 kts 226°
2026-04-22 10:23 51.89214 0.25832 362 ft 4 kts 294°
2026-04-22 10:24 51.89199 0.25863 364 ft 4 kts 313°
2026-04-22 10:24 51.89195 0.25870 364 ft 0 kts 313°
2026-04-22 10:27 51.89196 0.25868 355 ft 1 kts 313°
2026-04-22 10:27 51.89208 0.25847 357 ft 4 kts 312°
2026-04-22 10:28 51.89237 0.25796 359 ft 8 kts 312°
2026-04-22 10:28 51.89290 0.25702 355 ft 14 kts 313°
2026-04-22 10:28 51.89355 0.25563 355 ft 14 kts 269°
2026-04-22 10:28 51.89286 0.25441 356 ft 16 kts 223°
2026-04-22 10:29 51.89203 0.25315 359 ft 18 kts 223°
2026-04-22 10:29 51.89108 0.25174 355 ft 19 kts 223°
2026-04-22 10:29 51.89005 0.25019 361 ft 21 kts 223°
2026-04-22 10:29 51.88893 0.24851 359 ft 23 kts 223°
2026-04-22 10:30 51.88772 0.24672 354 ft 25 kts 223°
2026-04-22 10:30 51.88642 0.24474 354 ft 26 kts 223°
2026-04-22 10:30 51.88507 0.24272 347 ft 25 kts 223°
2026-04-22 10:30 51.88383 0.24086 347 ft 22 kts 223°
2026-04-22 10:31 51.88268 0.23914 351 ft 23 kts 223°
2026-04-22 10:31 51.88147 0.23734 351 ft 25 kts 223°
2026-04-22 10:31 51.88021 0.23545 351 ft 24 kts 223°
2026-04-22 10:31 51.87902 0.23365 347 ft 22 kts 223°
2026-04-22 10:32 51.87811 0.23230 343 ft 16 kts 223°
2026-04-22 10:32 51.87739 0.23122 347 ft 12 kts 223°
2026-04-22 10:32 51.87717 0.23050 346 ft 3 kts 287°
2026-04-22 10:32 51.87725 0.23038 350 ft 3 kts 319°
2026-04-22 10:33 51.87763 0.22978 348 ft 13 kts 314°
2026-04-22 10:33 51.87851 0.22828 338 ft 24 kts 313°
2026-04-22 10:33 51.87945 0.22686 336 ft 14 kts 353°
2026-04-22 10:33 51.88015 0.22753 333 ft 10 kts 43°
2026-04-22 10:34 51.88152 0.22959 333 ft 60 kts 43°
2026-04-22 10:34 51.88628 0.23676 348 ft 125 kts 43°
2026-04-22 10:34 51.89370 0.24791 563 ft 156 kts 46°
2026-04-22 10:34 51.90186 0.26021 1269 ft 166 kts 47°
2026-04-22 10:35 51.91037 0.27333 2069 ft 171 kts 48°
2026-04-22 10:35 51.91972 0.28735 2648 ft 200 kts 45°
2026-04-22 10:35 51.93338 0.29762 3030 ft 240 kts
2026-04-22 10:35 51.94985 0.29168 4046 ft 255 kts 338°
2026-04-22 10:36 51.96424 0.27306 4273 ft 276 kts 308°
2026-04-22 10:36 51.97107 0.24405 4354 ft 280 kts 277°
2026-04-22 10:36 51.97386 0.21237 4484 ft 288 kts 278°
2026-04-22 10:36 51.97712 0.18024 4612 ft 290 kts 279°
2026-04-22 10:37 51.98051 0.14798 4771 ft 290 kts 279°
2026-04-22 10:37 51.98745 0.08337 5002 ft 292 kts 279°
2026-04-22 10:37 51.98825 0.05080 4950 ft 288 kts 258°
2026-04-22 10:38 51.98418 0.01903 5014 ft 289 kts 255°
2026-04-22 10:38 51.98012 -0.01284 4986 ft 288 kts 255°
2026-04-22 10:38 51.97602 -0.04474 4971 ft 290 kts 255°
2026-04-22 10:38 51.97188 -0.07684 5044 ft 293 kts 255°
2026-04-22 10:39 51.96768 -0.10929 5771 ft 293 kts 255°
2026-04-22 10:39 51.96347 -0.14163 6694 ft 295 kts 255°
2026-04-22 10:39 51.95920 -0.17443 7496 ft 299 kts 255°
2026-04-22 10:39 51.95487 -0.20757 8295 ft 302 kts 256°
2026-04-22 10:40 51.95049 -0.24101 9108 ft 304 kts 256°
2026-04-22 10:40 51.94613 -0.27424 9953 ft 307 kts 256°
2026-04-22 10:40 51.94158 -0.30881 10672 ft 314 kts 256°
2026-04-22 10:40 51.93689 -0.34437 11040 ft 332 kts 256°
2026-04-22 10:41 51.93195 -0.38174 11452 ft 346 kts 256°
2026-04-22 10:41 51.92695 -0.41951 12168 ft 347 kts 255°
2026-04-22 10:41 51.92183 -0.45797 12858 ft 350 kts 256°
2026-04-22 10:41 51.91661 -0.49720 13562 ft 353 kts 256°
2026-04-22 10:42 51.91139 -0.53624 14212 ft 356 kts 256°
2026-04-22 10:42 51.90617 -0.57518 14753 ft 361 kts 256°
2026-04-22 10:42 51.90085 -0.61483 15395 ft 360 kts 256°
2026-04-22 10:42 51.89540 -0.65523 16050 ft 362 kts 256°
2026-04-22 10:43 51.89007 -0.69471 16645 ft 367 kts 256°
2026-04-22 10:43 51.88457 -0.73526 17203 ft 370 kts 256°
2026-04-22 10:43 51.87903 -0.77606 17799 ft 373 kts 257°
2026-04-22 10:43 51.87345 -0.81710 18402 ft 373 kts 257°
2026-04-22 10:44 51.86787 -0.85802 18970 ft 373 kts 257°
2026-04-22 10:44 51.86223 -0.89929 19388 ft 376 kts 258°
2026-04-22 10:44 51.85488 -0.93995 19821 ft 379 kts 245°
2026-04-22 10:44 51.84019 -0.97488 20339 ft 379 kts 226°
2026-04-22 10:45 51.81915 -1.00058 20846 ft 381 kts 208°
2026-04-22 10:45 51.79411 -1.01549 21175 ft 389 kts 195°
2026-04-22 10:45 51.76728 -1.02411 21510 ft 394 kts 193°
2026-04-22 10:45 51.74039 -1.03204 21983 ft 394 kts 192°
2026-04-22 10:46 51.71331 -1.03955 22357 ft 397 kts 192°
2026-04-22 10:46 51.68590 -1.04689 22693 ft 400 kts 192°
2026-04-22 10:46 51.65845 -1.05404 23055 ft 402 kts 192°
2026-04-22 10:46 51.63077 -1.06114 23413 ft 404 kts 191°
2026-04-22 10:47 51.60335 -1.07080 23759 ft 403 kts 199°
2026-04-22 10:47 51.57622 -1.08278 24023 ft 406 kts 198°
2026-04-22 10:47 51.54885 -1.09446 24315 ft 407 kts 198°
2026-04-22 10:47 51.52143 -1.10593 24613 ft 409 kts 198°
2026-04-22 10:48 51.49382 -1.11735 24883 ft 410 kts 197°
2026-04-22 10:48 51.46622 -1.12908 25139 ft 411 kts 198°
2026-04-22 10:48 51.43854 -1.14096 25385 ft 413 kts 198°
2026-04-22 10:48 51.41071 -1.15285 25630 ft 414 kts 198°
2026-04-22 10:49 51.38286 -1.16472 25869 ft 416 kts 198°
2026-04-22 10:49 51.35478 -1.17667 26101 ft 417 kts 198°
2026-04-22 10:49 51.32672 -1.18860 26324 ft 418 kts 198°
2026-04-22 10:49 51.29855 -1.20056 26564 ft 419 kts 198°
2026-04-22 10:50 51.27031 -1.21252 26810 ft 421 kts 198°
2026-04-22 10:50 51.24198 -1.22452 27026 ft 422 kts 198°
2026-04-22 10:50 51.21349 -1.23657 27255 ft 424 kts 198°
2026-04-22 10:50 51.18496 -1.24861 27468 ft 425 kts 198°
2026-04-22 10:51 51.15635 -1.26068 27662 ft 426 kts 198°
2026-04-22 10:51 51.12768 -1.27276 27850 ft 428 kts 198°
2026-04-22 10:51 51.09886 -1.28488 28054 ft 429 kts 199°
2026-04-22 10:51 51.07002 -1.29700 28244 ft 430 kts 199°
2026-04-22 10:52 51.04101 -1.30917 28421 ft 431 kts 199°
2026-04-22 10:52 51.01196 -1.32135 28607 ft 432 kts 199°
2026-04-22 10:52 50.98284 -1.33353 28777 ft 433 kts 199°
2026-04-22 10:52 50.95392 -1.34682 28916 ft 431 kts 206°
2026-04-22 10:53 50.92722 -1.36782 29071 ft 428 kts 211°
2026-04-22 10:53 50.90047 -1.38908 29195 ft 431 kts 211°
2026-04-22 10:53 50.87368 -1.41034 29347 ft 431 kts 210°
2026-04-22 10:53 50.84690 -1.43164 29545 ft 431 kts 210°
2026-04-22 10:54 50.82008 -1.45300 29713 ft 432 kts 210°
2026-04-22 10:54 50.79316 -1.47441 29888 ft 433 kts 211°
2026-04-22 10:54 50.76621 -1.49582 30061 ft 434 kts 211°
2026-04-22 10:54 50.73950 -1.51700 30226 ft 435 kts 211°
2026-04-22 10:55 50.71241 -1.53847 30390 ft 437 kts 211°
2026-04-22 10:55 50.68524 -1.55996 30548 ft 437 kts 211°
2026-04-22 10:55 50.65800 -1.58148 30716 ft 438 kts 210°
2026-04-22 10:55 50.63070 -1.60303 30875 ft 439 kts 210°
2026-04-22 10:56 50.60333 -1.62460 31054 ft 440 kts 210°
2026-04-22 10:56 50.57600 -1.64612 31239 ft 441 kts 210°
2026-04-22 10:56 50.54852 -1.66773 31422 ft 442 kts 211°
2026-04-22 10:56 50.52102 -1.68931 31631 ft 442 kts 210°
2026-04-22 10:57 50.49341 -1.71096 31819 ft 443 kts 210°
2026-04-22 10:57 50.46583 -1.73256 32035 ft 444 kts 210°
2026-04-22 10:57 50.43812 -1.75422 32235 ft 445 kts 210°
2026-04-22 10:57 50.41036 -1.77590 32474 ft 446 kts 210°
2026-04-22 10:58 50.38252 -1.79762 32731 ft 446 kts 210°
2026-04-22 10:58 50.35470 -1.81929 32998 ft 447 kts 211°
2026-04-22 10:58 50.32691 -1.84090 33312 ft 446 kts 211°
2026-04-22 10:58 50.29915 -1.86247 33738 ft 443 kts 210°
2026-04-22 10:59 50.27168 -1.88377 34170 ft 440 kts 211°
2026-04-22 10:59 50.24430 -1.90499 34501 ft 439 kts 210°
2026-04-22 10:59 50.21693 -1.92617 34739 ft 438 kts 210°
2026-04-22 10:59 50.18961 -1.94727 34943 ft 439 kts 211°
2026-04-22 11:00 50.16221 -1.96843 35189 ft 438 kts 210°
2026-04-22 11:00 50.13495 -1.98944 35478 ft 437 kts 210°
2026-04-22 11:00 50.10773 -2.01039 35657 ft 437 kts 210°
2026-04-22 11:00 50.08046 -2.03137 35856 ft 437 kts 210°
2026-04-22 11:01 50.05351 -2.05206 36056 ft 437 kts 210°
2026-04-22 11:01 50.02586 -2.07328 36242 ft 437 kts 210°
2026-04-22 11:01 49.99893 -2.09392 36433 ft 437 kts 210°
2026-04-22 11:01 49.97038 -2.11227 36609 ft 442 kts 200°
2026-04-22 11:02 49.94098 -2.12574 36777 ft 442 kts 201°
2026-04-22 11:02 49.91196 -2.13946 36964 ft 441 kts 201°
2026-04-22 11:02 49.88262 -2.15321 37141 ft 440 kts 201°
2026-04-22 11:02 49.85323 -2.16695 37287 ft 441 kts 201°
2026-04-22 11:03 49.82390 -2.18062 37439 ft 441 kts 201°
2026-04-22 11:03 49.79456 -2.19428 37575 ft 441 kts 201°
2026-04-22 11:03 49.76512 -2.20797 37729 ft 441 kts 201°
2026-04-22 11:03 49.73573 -2.22162 37863 ft 441 kts 201°
2026-04-22 11:04 49.70640 -2.23523 37989 ft 441 kts 201°
2026-04-22 11:04 49.67694 -2.24887 38131 ft 441 kts 201°
2026-04-22 11:04 49.64755 -2.26246 38173 ft 442 kts 201°
2026-04-22 11:05 49.58891 -2.28954 38173 ft 439 kts 201°
2026-04-22 11:05 49.53028 -2.31655 38161 ft 439 kts 201°
2026-04-22 11:06 49.47171 -2.34346 38128 ft 441 kts 201°
2026-04-22 11:06 49.41280 -2.37046 38136 ft 442 kts 200°
2026-04-22 11:07 49.35388 -2.39740 38128 ft 442 kts 201°
2026-04-22 11:07 49.30484 -2.41976 38129 ft 442 kts 200°
2026-04-22 11:08 49.24592 -2.44658 38129 ft 442 kts 201°
2026-04-22 11:08 49.18698 -2.47333 38130 ft 442 kts 200°
2026-04-22 11:09 49.12797 -2.50005 38125 ft 442 kts 200°
2026-04-22 11:09 49.06901 -2.52668 38123 ft 442 kts 200°
2026-04-22 11:10 49.01014 -2.55321 38116 ft 440 kts 200°
2026-04-22 11:10 48.95146 -2.57958 38118 ft 440 kts 200°
2026-04-22 11:11 48.89278 -2.60589 38113 ft 440 kts 200°
2026-04-22 11:11 48.83408 -2.63214 38122 ft 439 kts 200°
2026-04-22 11:12 48.77587 -2.65812 38100 ft 435 kts 200°
2026-04-22 11:12 48.71770 -2.68401 38104 ft 436 kts 200°
2026-04-22 11:13 48.65955 -2.70983 38099 ft 436 kts 200°
2026-04-22 11:13 48.60137 -2.73559 38090 ft 435 kts 200°
2026-04-22 11:14 48.54327 -2.76127 38096 ft 435 kts 200°
2026-04-22 11:14 48.48519 -2.78688 38089 ft 435 kts 200°
2026-04-22 11:15 48.42711 -2.81242 38078 ft 435 kts 200°
2026-04-22 11:15 48.36902 -2.83791 38082 ft 434 kts 200°
2026-04-22 11:16 48.31134 -2.86315 38076 ft 434 kts 200°
2026-04-22 11:16 48.25339 -2.88846 38063 ft 434 kts 200°
2026-04-22 11:17 48.19539 -2.91372 38081 ft 434 kts 200°
2026-04-22 11:17 48.13737 -2.93894 38065 ft 434 kts 200°
2026-04-22 11:18 48.07935 -2.96410 38050 ft 434 kts 200°
2026-04-22 11:18 48.02142 -2.98916 38064 ft 432 kts 200°
2026-04-22 11:19 47.96382 -3.01401 38036 ft 430 kts 200°
2026-04-22 11:19 47.90632 -3.03877 38039 ft 430 kts 200°
2026-04-22 11:20 47.84884 -3.06346 38039 ft 430 kts 200°
2026-04-22 11:20 47.79135 -3.08810 38039 ft 430 kts 200°
2026-04-22 11:21 47.73382 -3.11270 38039 ft 430 kts 201°
2026-04-22 11:21 47.67638 -3.13721 38041 ft 429 kts 201°
2026-04-22 11:22 47.61892 -3.16166 38034 ft 430 kts 201°
2026-04-22 11:22 47.56144 -3.18607 38027 ft 429 kts 201°
2026-04-22 11:23 47.50409 -3.21037 38018 ft 429 kts 201°
2026-04-22 11:23 47.44659 -3.23468 38015 ft 429 kts 201°
2026-04-22 11:24 47.38910 -3.25893 38015 ft 429 kts 200°
2026-04-22 11:24 47.33163 -3.28311 37998 ft 429 kts 201°
2026-04-22 11:25 47.27469 -3.30702 38011 ft 428 kts 201°
2026-04-22 11:25 47.21773 -3.33088 38005 ft 422 kts 201°
2026-04-22 11:26 47.16084 -3.35466 38012 ft 422 kts 201°
2026-04-22 11:26 47.10469 -3.37807 38005 ft 422 kts 201°
2026-04-22 11:27 47.04809 -3.40163 38006 ft 423 kts 201°
2026-04-22 11:27 46.99156 -3.42510 38009 ft 423 kts 201°
2026-04-22 11:28 46.93493 -3.44856 38007 ft 423 kts 201°
2026-04-22 11:28 46.87829 -3.47198 38003 ft 424 kts 201°
2026-04-22 11:29 46.82150 -3.49540 38008 ft 424 kts 201°
2026-04-22 11:29 46.76478 -3.51875 38006 ft 424 kts 201°
2026-04-22 11:30 46.70796 -3.54209 38005 ft 424 kts 201°
2026-04-22 11:30 46.65125 -3.56533 38001 ft 424 kts 201°
2026-04-22 11:31 46.59447 -3.58856 38007 ft 424 kts 201°
2026-04-22 11:31 46.53768 -3.61174 37999 ft 424 kts 201°
2026-04-22 11:32 46.48092 -3.63486 37997 ft 423 kts 200°
2026-04-22 11:32 46.42448 -3.65780 37989 ft 420 kts 200°
2026-04-22 11:33 46.36819 -3.68064 37994 ft 420 kts 200°
2026-04-22 11:33 46.31031 -3.69337 37972 ft 432 kts 178°
2026-04-22 11:34 46.25035 -3.68032 37977 ft 438 kts 176°
2026-04-22 11:34 46.19011 -3.66589 37977 ft 439 kts 176°
2026-04-22 11:35 46.12988 -3.65090 37970 ft 439 kts 175°
2026-04-22 11:35 46.06960 -3.63586 37977 ft 440 kts 175°
2026-04-22 11:36 46.00936 -3.62085 37973 ft 440 kts 175°
2026-04-22 11:36 45.94907 -3.60586 37965 ft 440 kts 175°
2026-04-22 11:37 45.88872 -3.59090 37968 ft 440 kts 176°
2026-04-22 11:37 45.82874 -3.57605 37971 ft 441 kts 176°
2026-04-22 11:38 45.76834 -3.56113 37969 ft 440 kts 176°
2026-04-22 11:38 45.67777 -3.53883 37970 ft 441 kts 176°
2026-04-22 11:39 45.61721 -3.52395 37967 ft 441 kts 176°
2026-04-22 11:39 45.55676 -3.50914 37969 ft 441 kts 176°
2026-04-22 11:40 45.49606 -3.49429 37968 ft 444 kts 176°
2026-04-22 11:40 45.43496 -3.47938 37967 ft 445 kts 176°
2026-04-22 11:41 45.37397 -3.46453 37972 ft 445 kts 176°
2026-04-22 11:41 45.31291 -3.44970 37961 ft 445 kts 176°
2026-04-22 11:42 45.25223 -3.43499 37975 ft 446 kts 176°
2026-04-22 11:42 45.19105 -3.42019 37974 ft 446 kts 176°
2026-04-22 11:43 45.12990 -3.40543 37958 ft 446 kts 175°
2026-04-22 11:43 45.06868 -3.39069 37979 ft 447 kts 175°
2026-04-22 11:44 45.00734 -3.37595 37981 ft 447 kts 175°
2026-04-22 11:44 44.94603 -3.36125 37984 ft 447 kts 175°
2026-04-22 11:45 44.88467 -3.34657 37984 ft 448 kts 175°
2026-04-22 11:45 44.82326 -3.33191 37981 ft 447 kts 175°
2026-04-22 11:46 44.76183 -3.31727 37986 ft 447 kts 175°
2026-04-22 11:46 44.70047 -3.30268 37992 ft 447 kts 176°
2026-04-22 11:47 44.63904 -3.28811 37997 ft 447 kts 176°
2026-04-22 11:47 44.57766 -3.27358 37995 ft 447 kts 176°
2026-04-22 11:48 44.51616 -3.25906 38001 ft 449 kts 175°
2026-04-22 11:48 44.45455 -3.24454 38003 ft 449 kts 175°
2026-04-22 11:49 44.39296 -3.23005 38013 ft 449 kts 175°
2026-04-22 11:49 44.33130 -3.21558 38013 ft 450 kts 175°
2026-04-22 11:50 44.26955 -3.20112 38009 ft 450 kts 175°
2026-04-22 11:50 44.20780 -3.18668 38015 ft 450 kts 175°
2026-04-22 11:51 44.14644 -3.17237 38014 ft 451 kts 175°
2026-04-22 11:51 44.08451 -3.15789 38016 ft 452 kts 174°
2026-04-22 11:52 44.05445 -3.14480 37993 ft 459 kts 158°
2026-04-22 11:52 44.02731 -3.12079 38036 ft 466 kts 145°
2026-04-22 11:52 43.97611 -3.06480 38001 ft 469 kts 145°
2026-04-22 11:53 43.92499 -3.00775 38013 ft 473 kts 144°
2026-04-22 11:53 43.87382 -2.95033 38013 ft 473 kts 144°
2026-04-22 11:54 43.82264 -2.89300 38033 ft 473 kts 144°
2026-04-22 11:54 43.77139 -2.83572 38026 ft 473 kts 144°
2026-04-22 11:55 43.72018 -2.77854 38027 ft 473 kts 144°
2026-04-22 11:55 43.66895 -2.72145 38025 ft 473 kts 144°
2026-04-22 11:56 43.62631 -2.67407 38026 ft 473 kts 144°
2026-04-22 11:56 43.57490 -2.61705 38022 ft 474 kts 144°
2026-04-22 11:57 43.52345 -2.56012 38030 ft 474 kts 144°
2026-04-22 11:57 43.47198 -2.50331 38038 ft 474 kts 144°
2026-04-22 11:58 43.42046 -2.44656 38032 ft 474 kts 144°
2026-04-22 11:58 43.36891 -2.38990 38029 ft 474 kts 144°
2026-04-22 11:59 43.31733 -2.33334 38028 ft 474 kts 144°
2026-04-22 11:59 43.26577 -2.27693 38022 ft 474 kts 143°
2026-04-22 12:00 43.21416 -2.22059 38027 ft 475 kts 143°
2026-04-22 12:00 43.16243 -2.16424 38022 ft 475 kts 143°
2026-04-22 12:01 43.11076 -2.10807 38019 ft 474 kts 143°
2026-04-22 12:01 43.05905 -2.05203 38016 ft 474 kts 143°
2026-04-22 12:02 43.00732 -1.99610 38011 ft 474 kts 144°
2026-04-22 12:02 42.95561 -1.94029 37999 ft 473 kts 143°
2026-04-22 12:03 42.90388 -1.88458 38005 ft 474 kts 143°
2026-04-22 12:03 42.85214 -1.82892 37991 ft 474 kts 143°
2026-04-22 12:04 42.80032 -1.77345 37992 ft 473 kts 146°
2026-04-22 12:04 42.77246 -1.75149 37974 ft 467 kts 161°
2026-04-22 12:04 42.74146 -1.73993 38000 ft 459 kts 177°
2026-04-22 12:05 42.70974 -1.73885 37996 ft 454 kts 189°
2026-04-22 12:05 42.67910 -1.74695 37979 ft 445 kts 204°
2026-04-22 12:05 42.62172 -1.77933 37979 ft 444 kts 209°
2026-04-22 12:06 42.56638 -1.81495 37977 ft 443 kts 210°
2026-04-22 12:06 42.51105 -1.85169 37973 ft 443 kts 211°
2026-04-22 12:07 42.45574 -1.88864 37974 ft 443 kts 211°
2026-04-22 12:07 42.40046 -1.92552 37971 ft 442 kts 211°
2026-04-22 12:08 42.34520 -1.96233 37968 ft 443 kts 211°
2026-04-22 12:08 42.28997 -1.99912 37978 ft 443 kts 210°
2026-04-22 12:09 42.23456 -2.03582 37976 ft 443 kts 210°
2026-04-22 12:09 42.17919 -2.07243 37970 ft 443 kts 210°
2026-04-22 12:10 42.12380 -2.10902 37975 ft 444 kts 210°
2026-04-22 12:10 42.06829 -2.14562 37988 ft 444 kts 210°
2026-04-22 12:11 42.01274 -2.18217 38005 ft 445 kts 210°
2026-04-22 12:11 41.95721 -2.21864 37960 ft 444 kts 210°
2026-04-22 12:12 41.90140 -2.25522 37991 ft 447 kts 210°
2026-04-22 12:12 41.84561 -2.29171 37988 ft 446 kts 210°
2026-04-22 12:13 41.79007 -2.32797 37982 ft 443 kts 210°
2026-04-22 12:13 41.73465 -2.36408 37976 ft 443 kts 210°
2026-04-22 12:14 41.67907 -2.40023 37993 ft 444 kts 210°
2026-04-22 12:14 41.62355 -2.43626 37991 ft 444 kts 210°
2026-04-22 12:15 41.56789 -2.47233 37989 ft 444 kts 210°
2026-04-22 12:15 41.51272 -2.50801 37976 ft 445 kts 210°
2026-04-22 12:16 41.45681 -2.54408 37991 ft 447 kts 210°
2026-04-22 12:16 41.40091 -2.58008 38000 ft 446 kts 210°
2026-04-22 12:17 41.34477 -2.61555 37995 ft 448 kts 204°
2026-04-22 12:17 41.31436 -2.62507 37966 ft 454 kts 187°
2026-04-22 12:17 41.28267 -2.62454 38024 ft 458 kts 180°
2026-04-22 12:18 41.21873 -2.62009 38008 ft 460 kts 180°
2026-04-22 12:18 41.15472 -2.61466 38011 ft 461 kts 179°
2026-04-22 12:19 41.09076 -2.60898 38011 ft 460 kts 179°
2026-04-22 12:19 41.02683 -2.60330 38014 ft 461 kts 179°
2026-04-22 12:20 40.96280 -2.59756 38023 ft 461 kts 179°
2026-04-22 12:20 40.89883 -2.59177 38016 ft 461 kts 179°
2026-04-22 12:21 40.83490 -2.58601 38025 ft 460 kts 179°
2026-04-22 12:21 40.77151 -2.58031 38021 ft 460 kts 179°
2026-04-22 12:22 40.70727 -2.57454 38025 ft 460 kts 179°
2026-04-22 12:22 40.64381 -2.56886 38028 ft 460 kts 179°
2026-04-22 12:23 40.57998 -2.56314 38022 ft 460 kts 179°
2026-04-22 12:23 40.51615 -2.55745 38015 ft 460 kts 179°
2026-04-22 12:24 40.45225 -2.55175 38023 ft 460 kts 179°
2026-04-22 12:24 40.38847 -2.54710 38012 ft 456 kts 187°
2026-04-22 12:25 40.35777 -2.55452 38019 ft 445 kts 203°
2026-04-22 12:25 40.32853 -2.56810 38019 ft 447 kts 203°
2026-04-22 12:25 40.27006 -2.59619 38031 ft 448 kts 204°
2026-04-22 12:26 40.21192 -2.62508 38022 ft 447 kts 205°
2026-04-22 12:26 40.15393 -2.65412 38035 ft 446 kts 205°
2026-04-22 12:27 40.09584 -2.68317 38037 ft 445 kts 205°
2026-04-22 12:27 40.03818 -2.71195 38032 ft 443 kts 205°
2026-04-22 12:28 39.98052 -2.74067 38035 ft 444 kts 205°
2026-04-22 12:28 39.92282 -2.76938 38038 ft 444 kts 204°
2026-04-22 12:29 39.86508 -2.79804 38043 ft 444 kts 204°
2026-04-22 12:29 39.80734 -2.82665 38039 ft 444 kts 204°
2026-04-22 12:30 39.72080 -2.86943 38043 ft 444 kts 204°
2026-04-22 12:31 39.66347 -2.89772 38046 ft 443 kts 204°
2026-04-22 12:31 39.60581 -2.92613 38036 ft 443 kts 204°
2026-04-22 12:32 39.54834 -2.95445 38033 ft 443 kts 204°
2026-04-22 12:32 39.46188 -2.99698 38035 ft 443 kts 204°
2026-04-22 12:33 39.40417 -3.02529 38032 ft 443 kts 204°
2026-04-22 12:33 39.34649 -3.05342 38020 ft 443 kts 204°
2026-04-22 12:34 39.28881 -3.08150 38016 ft 442 kts 204°
2026-04-22 12:34 39.23108 -3.10956 38030 ft 444 kts 204°
2026-04-22 12:35 39.17335 -3.13758 38024 ft 443 kts 204°
2026-04-22 12:35 39.11567 -3.16551 38024 ft 443 kts 204°
2026-04-22 12:36 39.05792 -3.19343 38019 ft 443 kts 204°
2026-04-22 12:36 39.00007 -3.22135 38018 ft 444 kts 204°
2026-04-22 12:37 38.94220 -3.24922 38014 ft 444 kts 204°
2026-04-22 12:37 38.88442 -3.27700 38017 ft 444 kts 204°
2026-04-22 12:38 38.82654 -3.30478 38014 ft 444 kts 204°
2026-04-22 12:38 38.76870 -3.33249 38022 ft 444 kts 204°
2026-04-22 12:39 38.68197 -3.37395 38018 ft 444 kts 204°
2026-04-22 12:40 38.62405 -3.40158 38016 ft 444 kts 204°
2026-04-22 12:40 38.56663 -3.42892 38025 ft 443 kts 204°
2026-04-22 12:41 38.50899 -3.45632 38010 ft 440 kts 204°
2026-04-22 12:41 38.45173 -3.48349 38024 ft 440 kts 204°
2026-04-22 12:42 38.39436 -3.51067 38008 ft 439 kts 203°
2026-04-22 12:42 38.33709 -3.53776 38019 ft 440 kts 204°
2026-04-22 12:43 38.27968 -3.56487 38022 ft 440 kts 204°
2026-04-22 12:43 38.22232 -3.59190 38026 ft 440 kts 204°
2026-04-22 12:44 38.17459 -3.61433 38027 ft 440 kts 202°
2026-04-22 12:44 38.14472 -3.62296 37983 ft 445 kts 186°
2026-04-22 12:44 38.11374 -3.62393 38040 ft 446 kts 185°
2026-04-22 12:44 38.08267 -3.62480 37812 ft 442 kts 184°
2026-04-22 12:45 38.05209 -3.62537 37303 ft 438 kts 184°
2026-04-22 12:45 38.02172 -3.62575 36780 ft 435 kts 184°
2026-04-22 12:45 37.99156 -3.62605 36277 ft 432 kts 184°
2026-04-22 12:45 37.96154 -3.62631 35791 ft 429 kts 184°
2026-04-22 12:46 37.93184 -3.62656 35295 ft 426 kts 184°
2026-04-22 12:46 37.90229 -3.62681 34810 ft 423 kts 184°
2026-04-22 12:46 37.87291 -3.62706 34322 ft 421 kts 184°
2026-04-22 12:46 37.84367 -3.62730 33826 ft 419 kts 184°
2026-04-22 12:47 37.81461 -3.62754 33274 ft 417 kts 184°
2026-04-22 12:47 37.78568 -3.62778 32795 ft 414 kts 184°
2026-04-22 12:47 37.75697 -3.62802 32341 ft 411 kts 184°
2026-04-22 12:47 37.72848 -3.62826 31884 ft 408 kts 184°
2026-04-22 12:48 37.70013 -3.62849 31427 ft 406 kts 184°
2026-04-22 12:48 37.67197 -3.62874 30962 ft 404 kts 184°
2026-04-22 12:48 37.64397 -3.62895 30483 ft 402 kts 184°
2026-04-22 12:48 37.61603 -3.62915 30053 ft 400 kts 184°
2026-04-22 12:49 37.58830 -3.62936 29559 ft 397 kts 185°
2026-04-22 12:49 37.56082 -3.62957 29132 ft 393 kts 185°
2026-04-22 12:49 37.53356 -3.62978 28729 ft 389 kts 184°
2026-04-22 12:49 37.50660 -3.62999 28314 ft 386 kts 185°
2026-04-22 12:50 37.47988 -3.63019 27910 ft 382 kts 185°
2026-04-22 12:50 37.45373 -3.63039 27527 ft 379 kts 185°
2026-04-22 12:50 37.42701 -3.62808 27059 ft 383 kts 171°
2026-04-22 12:50 37.40241 -3.61602 26607 ft 389 kts 151°
2026-04-22 12:51 37.38150 -3.59375 26255 ft 390 kts 131°
2026-04-22 12:51 37.36691 -3.56510 25911 ft 389 kts 118°
2026-04-22 12:51 37.35463 -3.53542 25522 ft 388 kts 119°
2026-04-22 12:51 37.34228 -3.50531 25121 ft 387 kts 118°
2026-04-22 12:52 37.33006 -3.47518 24729 ft 387 kts 118°
2026-04-22 12:52 37.31793 -3.44509 24325 ft 386 kts 118°
2026-04-22 12:52 37.30584 -3.41500 23942 ft 385 kts 118°
2026-04-22 12:52 37.29378 -3.38503 23549 ft 384 kts 118°
2026-04-22 12:53 37.28177 -3.35516 23115 ft 383 kts 118°
2026-04-22 12:53 37.26977 -3.32535 22711 ft 381 kts 118°
2026-04-22 12:53 37.25783 -3.29573 22323 ft 379 kts 118°
2026-04-22 12:53 37.24615 -3.26625 21898 ft 377 kts 118°
2026-04-22 12:54 37.23461 -3.23681 21529 ft 374 kts 118°
2026-04-22 12:54 37.22315 -3.20763 21178 ft 372 kts 118°
2026-04-22 12:54 37.21173 -3.17862 20787 ft 369 kts 118°
2026-04-22 12:54 37.20041 -3.14987 20426 ft 367 kts 118°
2026-04-22 12:55 37.18913 -3.12128 20040 ft 363 kts 118°
2026-04-22 12:55 37.17804 -3.09316 19675 ft 357 kts 118°
2026-04-22 12:55 37.16710 -3.06545 19317 ft 351 kts 119°
2026-04-22 12:55 37.15633 -3.03822 18943 ft 347 kts 120°
2026-04-22 12:56 37.14564 -3.01123 18606 ft 345 kts 118°
2026-04-22 12:56 37.13496 -2.98430 18227 ft 345 kts 119°
2026-04-22 12:56 37.12435 -2.95751 17849 ft 341 kts 119°
2026-04-22 12:56 37.11380 -2.93090 17441 ft 340 kts 119°
2026-04-22 12:57 37.10335 -2.90460 17110 ft 336 kts 119°
2026-04-22 12:57 37.09300 -2.87856 16778 ft 333 kts 120°
2026-04-22 12:57 37.08273 -2.85272 16426 ft 330 kts 120°
2026-04-22 12:57 37.07253 -2.82709 16097 ft 329 kts 120°
2026-04-22 12:58 37.06232 -2.80145 15738 ft 327 kts 120°
2026-04-22 12:58 37.05212 -2.77606 15389 ft 325 kts 121°
2026-04-22 12:58 37.04166 -2.75114 15053 ft 322 kts 122°
2026-04-22 12:58 37.03123 -2.72640 14722 ft 321 kts 121°
2026-04-22 12:59 37.02090 -2.70180 14423 ft 318 kts 121°
2026-04-22 12:59 37.01066 -2.67743 14115 ft 316 kts 122°
2026-04-22 12:59 37.00097 -2.65280 13762 ft 317 kts 114°
2026-04-22 12:59 36.99593 -2.62574 13361 ft 322 kts 98°
2026-04-22 13:00 36.99616 -2.59775 13023 ft 323 kts 85°
2026-04-22 13:00 37.00096 -2.57030 12707 ft 323 kts 73°
2026-04-22 13:00 37.01007 -2.54466 12377 ft 323 kts 61°
2026-04-22 13:00 37.02338 -2.52210 12055 ft 323 kts 47°
2026-04-22 13:01 37.03954 -2.50320 11730 ft 321 kts 45°
2026-04-22 13:01 37.05458 -2.48271 11400 ft 319 kts 52°
2026-04-22 13:01 37.06802 -2.46030 11080 ft 317 kts 57°
2026-04-22 13:01 37.07977 -2.43703 10730 ft 315 kts 62°
2026-04-22 13:02 37.08981 -2.41318 10410 ft 313 kts 66°
2026-04-22 13:02 37.09854 -2.38791 10096 ft 310 kts 71°
2026-04-22 13:02 37.10543 -2.36292 9891 ft 305 kts 76°
2026-04-22 13:02 37.11082 -2.33733 9546 ft 303 kts 80°
2026-04-22 13:03 37.11461 -2.31146 9213 ft 301 kts 84°
2026-04-22 13:03 37.11687 -2.28543 8875 ft 299 kts 89°
2026-04-22 13:03 37.11762 -2.25951 8558 ft 296 kts 94°
2026-04-22 13:03 37.11684 -2.23390 8256 ft 293 kts 97°
2026-04-22 13:04 37.11465 -2.20868 7959 ft 289 kts 102°
2026-04-22 13:04 37.11109 -2.18403 7656 ft 287 kts 105°
2026-04-22 13:04 37.10620 -2.15988 7334 ft 285 kts 110°
2026-04-22 13:04 37.09996 -2.13640 7051 ft 283 kts 114°
2026-04-22 13:05 37.09195 -2.11403 6728 ft 280 kts 127°
2026-04-22 13:05 37.07809 -2.09756 6326 ft 275 kts 154°
2026-04-22 13:05 37.06022 -2.09013 5996 ft 269 kts 175°
2026-04-22 13:05 37.04165 -2.08781 5733 ft 267 kts 176°
2026-04-22 13:06 37.02317 -2.08569 5458 ft 265 kts 177°
2026-04-22 13:06 37.00505 -2.08374 5311 ft 257 kts 178°
2026-04-22 13:06 36.98752 -2.08195 5223 ft 248 kts 178°
2026-04-22 13:06 36.97067 -2.08028 5114 ft 238 kts 178°
2026-04-22 13:07 36.95438 -2.07870 4971 ft 234 kts 178°
2026-04-22 13:07 36.93809 -2.07728 4808 ft 234 kts 182°
2026-04-22 13:07 36.92273 -2.08235 4520 ft 230 kts 213°
2026-04-22 13:07 36.91209 -2.09664 4158 ft 224 kts 243°
2026-04-22 13:08 36.90687 -2.11459 3848 ft 216 kts 251°
2026-04-22 13:08 36.90240 -2.13219 3601 ft 210 kts 251°
2026-04-22 13:08 36.89807 -2.14961 3342 ft 210 kts 252°
2026-04-22 13:08 36.89379 -2.16697 3066 ft 208 kts 252°
2026-04-22 13:09 36.88956 -2.18412 2777 ft 206 kts 252°
2026-04-22 13:09 36.88536 -2.20130 2703 ft 207 kts 252°
2026-04-22 13:09 36.88116 -2.21841 2682 ft 208 kts 252°
2026-04-22 13:09 36.87695 -2.23571 2384 ft 207 kts 252°
2026-04-22 13:10 36.87298 -2.25249 2131 ft 195 kts 253°
2026-04-22 13:10 36.86895 -2.26831 1697 ft 188 kts 251°
2026-04-22 13:10 36.86524 -2.28320 1321 ft 176 kts 253°
2026-04-22 13:10 36.86197 -2.29709 1067 ft 157 kts 252°
2026-04-22 13:11 36.85902 -2.30943 837 ft 143 kts 249°
2026-04-22 13:11 36.85593 -2.32123 605 ft 143 kts 252°
2026-04-22 13:11 36.85309 -2.33319 432 ft 145 kts 251°
2026-04-22 13:11 36.85012 -2.34517 248 ft 144 kts 251°
2026-04-22 13:12 36.84721 -2.35708 84 ft 139 kts 249°
2026-04-22 13:12 36.84463 -2.36738 60 ft 105 kts 252°
2026-04-22 13:12 36.84294 -2.37427 67 ft 61 kts 253°
2026-04-22 13:12 36.84209 -2.37809 65 ft 37 kts 259°
2026-04-22 13:13 36.84209 -2.38076 58 ft 22 kts 280°
2026-04-22 13:13 36.84257 -2.38201 65 ft 10 kts
2026-04-22 13:13 36.84292 -2.38134 65 ft 10 kts 72°
2026-04-22 13:13 36.84316 -2.38039 66 ft 13 kts 73°
2026-04-22 13:14 36.84345 -2.37922 65 ft 15 kts 73°
2026-04-22 13:14 36.84378 -2.37787 67 ft 17 kts 73°
2026-04-22 13:14 36.84413 -2.37647 61 ft 17 kts 73°
2026-04-22 13:14 36.84448 -2.37518 66 ft 11 kts 53°
2026-04-22 13:15 36.84518 -2.37490 65 ft 10 kts 42°
2026-04-22 13:15 36.84546 -2.37408 70 ft 12 kts 73°
2026-04-22 13:15 36.84567 -2.37323 69 ft 10 kts 73°
2026-04-22 13:15 36.84591 -2.37269 67 ft 3 kts 23°
2026-04-22 13:16 36.84613 -2.37269 71 ft 4 kts 347°
2026-04-22 13:16 36.84643 -2.37279 68 ft 5 kts 343°
2026-04-22 13:16 36.84661 -2.37282 70 ft 1 kts 12°
2026-04-22 13:16 36.84668 -2.37276 71 ft 1 kts 49°
2026-04-22 13:17 36.84666 -2.37269 63 ft 2 kts 109°
2026-04-22 13:17 36.84656 -2.37254 67 ft 1 kts 123°
2026-04-22 13:17 36.84654 -2.37249 64 ft 0 kts 120°